Location: Marsån
(66.4167°N, 22.2833°E)
Time: 12:01:25
(UTC+00:00)

Cosmos 1709 Rocket - Pass Details

Date: 24 February 2024
Orbit: 947 x 1001 km, 82.9° (Epoch: 15 April)

Event Time Altitude Azimuth Distance (km) Brightness Sun altitude
Rises 21:00:16 0° 341° (NNW) 3,679 8.1 -30.3°
Reaches altitude 10° 21:02:47 10° 342° (NNW) 2,722 7.2 -30.4°
Enters shadow 21:08:38 80° 352° (N) 983 3.9 -30.7°
